2017-008BG

Last updated on Wed Mar 01 2017 00:15:03 GMT+0000 (Coordinated Universal Time)

1 42002U 17008BG 17059.81491378 .00001456 00000-0 67044-4 0 9998 2 42002 97.5106 121.4266 0007496 223.0187 137.0493 15.21901278 2059
UTC large
Height (km)
Speed (km/s)
/
Latitude / Longitude
Inclination (degrees)
Orbital Period (minutes)
Azimuth
Elevation
Range (km)
Doppler Factor

Next 0 passes for location: London (51.5072 / 0.1276)

Sorry there are no passes over London.